Time,TemperatureF,DewpointF,PressureIn,WindDirection,WindDirectionDegrees,WindSpeedMPH,WindSpeedGustMPH,Humidity,HourlyPrecipIn,Conditions,Clouds,dailyrainin,SoftwareType,DateUTC
2013-08-18 00:03:00,66.5,60.8,30.00,SE,139,0.0,-999.0,82,0.00,,,0.00,WeatherSnoop3.0,2013-08-18 05:03:00,
2013-08-18 00:08:00,66.3,60.3,30.00,WSW,245,0.0,-999.0,81,0.00,,,0.00,WeatherSnoop3.0,2013-08-18 05:08:00,
2013-08-18 00:13:00,66.0,60.3,30.00,SSE,159,0.0,-999.0,82,0.00,,,0.00,WeatherSnoop3.0,2013-08-18 05:13:00,
2013-08-18 00:18:00,65.9,60.2,30.00,SE,124,0.0,-999.0,82,0.00,,,0.00,WeatherSnoop3.0,2013-08-18 05:18:00,
2013-08-18 00:23:00,65.6,60.0,30.00,SE,145,0.0,-999.0,82,0.00,,,0.00,WeatherSnoop3.0,2013-08-18 05:23:00,
2013-08-18 00:28:00,65.5,59.9,30.00,SE,138,0.0,-999.0,82,0.00,,,0.00,WeatherSnoop3.0,2013-08-18 05:28:00,
2013-08-18 00:33:00,65.4,60.1,30.00,SE,142,0.0,-999.0,83,0.00,,,0.00,WeatherSnoop3.0,2013-08-18 05:33:00,
2013-08-18 00:38:00,65.2,60.2,30.00,SE,143,1.0,-999.0,84,0.00,,,0.00,WeatherSnoop3.0,2013-08-18 05:38:00,
2013-08-18 00:43:00,65.0,60.0,30.00,SE,142,0.0,-999.0,84,0.00,,,0.00,WeatherSnoop3.0,2013-08-18 05:43:00,
2013-08-18 00:48:00,64.8,59.8,30.00,ESE,119,2.0,-999.0,84,0.00,,,0.00,WeatherSnoop3.0,2013-08-18 05:48:00,
2013-08-18 00:53:00,64.8,59.8,30.00,ESE,119,1.0,-999.0,84,0.00,,,0.00,WeatherSnoop3.0,2013-08-18 05:53:00,
2013-08-18 00:58:00,64.8,59.8,30.00,SSE,149,0.0,-999.0,84,0.00,,,0.00,WeatherSnoop3.0,2013-08-18 05:58:00,
2013-08-18 01:03:00,64.7,60.1,30.00,SE,143,1.0,-999.0,85,0.00,,,0.00,WeatherSnoop3.0,2013-08-18 06:03:00,
2013-08-18 01:08:00,64.5,59.9,30.00,SE,132,0.0,-999.0,85,0.00,,,0.00,WeatherSnoop3.0,2013-08-18 06:08:00,
2013-08-18 01:13:00,64.3,59.7,30.00,SSE,153,0.0,-999.0,85,0.00,,,0.00,WeatherSnoop3.0,2013-08-18 06:13:00,
2013-08-18 01:18:00,64.2,59.9,30.00,SE,132,1.0,-999.0,86,0.00,,,0.00,WeatherSnoop3.0,2013-08-18 06:18:00,
2013-08-18 01:23:00,64.0,59.7,30.00,SE,129,0.0,-999.0,86,0.00,,,0.00,WeatherSnoop3.0,2013-08-18 06:23:00,
2013-08-18 01:28:00,63.8,59.9,30.00,SE,137,0.0,-999.0,87,0.00,,,0.00,WeatherSnoop3.0,2013-08-18 06:28:00,
2013-08-18 01:33:00,63.6,59.7,29.99,SSE,151,0.0,-999.0,87,0.00,,,0.00,WeatherSnoop3.0,2013-08-18 06:33:00,
2013-08-18 01:38:00,63.6,59.7,29.99,ESE,122,0.0,-999.0,87,0.00,,,0.00,WeatherSnoop3.0,2013-08-18 06:38:00,
2013-08-18 01:43:00,63.6,59.7,29.99,ESE,110,0.0,-999.0,87,0.00,,,0.00,WeatherSnoop3.0,2013-08-18 06:43:00,
2013-08-18 01:48:00,63.8,59.5,29.99,ESE,104,0.0,-999.0,86,0.00,,,0.00,WeatherSnoop3.0,2013-08-18 06:48:00,
2013-08-18 01:53:00,64.1,59.5,29.99,SE,132,0.0,-999.0,85,0.00,,,0.00,WeatherSnoop3.0,2013-08-18 06:53:00,
2013-08-18 01:58:00,64.2,59.6,29.99,ESE,117,4.0,-999.0,85,0.00,,,0.00,WeatherSnoop3.0,2013-08-18 06:58:00,
2013-08-18 02:03:00,64.4,59.5,29.99,SE,137,2.0,-999.0,84,0.00,,,0.00,WeatherSnoop3.0,2013-08-18 07:03:00,
2013-08-18 02:08:00,64.5,59.6,29.99,ESE,122,2.0,-999.0,84,0.00,,,0.00,WeatherSnoop3.0,2013-08-18 07:08:00,
2013-08-18 02:13:00,64.5,59.6,29.99,SE,139,0.0,-999.0,84,0.00,,,0.00,WeatherSnoop3.0,2013-08-18 07:13:00,
2013-08-18 02:18:00,64.5,59.6,29.99,SSE,163,2.0,-999.0,84,0.00,,,0.00,WeatherSnoop3.0,2013-08-18 07:18:00,
2013-08-18 02:23:00,64.3,59.4,29.98,SSE,153,1.0,-999.0,84,0.00,,,0.00,WeatherSnoop3.0,2013-08-18 07:23:00,
2013-08-18 02:28:00,64.3,59.4,29.98,ESE,122,3.0,-999.0,84,0.00,,,0.00,WeatherSnoop3.0,2013-08-18 07:28:00,
2013-08-18 02:33:00,64.2,59.3,29.99,SE,144,0.0,-999.0,84,0.00,,,0.00,WeatherSnoop3.0,2013-08-18 07:33:00,
2013-08-18 02:38:00,64.1,59.2,29.99,SSE,149,2.0,-999.0,84,0.00,,,0.00,WeatherSnoop3.0,2013-08-18 07:38:00,
2013-08-18 02:43:00,63.9,59.0,29.98,SE,138,1.0,-999.0,84,0.00,,,0.00,WeatherSnoop3.0,2013-08-18 07:43:00,
2013-08-18 02:48:00,63.7,59.1,29.98,SE,128,0.0,-999.0,85,0.00,,,0.00,WeatherSnoop3.0,2013-08-18 07:48:00,
2013-08-18 02:53:00,63.7,59.1,29.98,ESE,113,0.0,-999.0,85,0.00,,,0.00,WeatherSnoop3.0,2013-08-18 07:53:00,
2013-08-18 02:58:00,63.6,59.0,29.98,ESE,112,0.0,-999.0,85,0.00,,,0.00,WeatherSnoop3.0,2013-08-18 07:58:00,
2013-08-18 03:03:00,63.6,59.0,29.98,SE,142,0.0,-999.0,85,0.00,,,0.00,WeatherSnoop3.0,2013-08-18 08:03:00,
2013-08-18 03:08:00,63.5,58.9,29.98,SE,138,0.0,-999.0,85,0.00,,,0.00,WeatherSnoop3.0,2013-08-18 08:08:00,
2013-08-18 03:13:00,63.5,58.9,29.98,SE,124,0.0,-999.0,85,0.00,,,0.00,WeatherSnoop3.0,2013-08-18 08:13:00,
2013-08-18 03:18:00,63.3,58.7,29.98,SE,139,2.0,-999.0,85,0.00,,,0.00,WeatherSnoop3.0,2013-08-18 08:18:00,
2013-08-18 03:23:00,63.2,58.6,29.98,SSE,150,1.0,-999.0,85,0.00,,,0.00,WeatherSnoop3.0,2013-08-18 08:23:00,
2013-08-18 03:28:00,63.1,58.8,29.98,SE,145,2.0,-999.0,86,0.00,,,0.00,WeatherSnoop3.0,2013-08-18 08:28:00,
2013-08-18 03:33:00,63.0,58.7,29.98,SSE,150,0.0,-999.0,86,0.00,,,0.00,WeatherSnoop3.0,2013-08-18 08:33:00,
2013-08-18 03:38:00,62.9,58.6,29.98,SE,141,0.0,-999.0,86,0.00,,,0.00,WeatherSnoop3.0,2013-08-18 08:38:00,
2013-08-18 03:43:00,62.8,58.5,29.98,SE,136,0.0,-999.0,86,0.00,,,0.00,WeatherSnoop3.0,2013-08-18 08:43:00,
2013-08-18 03:48:00,62.6,58.7,29.98,SE,138,0.0,-999.0,87,0.00,,,0.00,WeatherSnoop3.0,2013-08-18 08:48:00,
2013-08-18 03:53:00,62.5,58.6,29.98,SE,140,1.0,-999.0,87,0.00,,,0.00,WeatherSnoop3.0,2013-08-18 08:53:00,
2013-08-18 03:58:00,62.4,58.5,29.98,SE,141,0.0,-999.0,87,0.00,,,0.00,WeatherSnoop3.0,2013-08-18 08:58:00,
2013-08-18 04:03:00,62.3,58.4,29.98,SE,136,0.0,-999.0,87,0.00,,,0.00,WeatherSnoop3.0,2013-08-18 09:03:00,
2013-08-18 04:08:00,62.2,58.6,29.98,ESE,110,0.0,-999.0,88,0.00,,,0.00,WeatherSnoop3.0,2013-08-18 09:08:00,
2013-08-18 04:13:00,62.0,58.4,29.98,SE,139,0.0,-999.0,88,0.00,,,0.00,WeatherSnoop3.0,2013-08-18 09:13:00,
2013-08-18 04:18:00,61.8,58.2,29.98,SE,139,0.0,-999.0,88,0.00,,,0.00,WeatherSnoop3.0,2013-08-18 09:18:00,
2013-08-18 04:23:00,61.6,58.3,29.98,SE,139,0.0,-999.0,89,0.00,,,0.00,WeatherSnoop3.0,2013-08-18 09:23:00,
2013-08-18 04:28:00,61.3,58.0,29.98,SE,132,0.0,-999.0,89,0.00,,,0.00,WeatherSnoop3.0,2013-08-18 09:28:00,
2013-08-18 04:33:00,61.3,58.0,29.98,SE,138,0.0,-999.0,89,0.00,,,0.00,WeatherSnoop3.0,2013-08-18 09:33:00,
2013-08-18 04:38:00,61.0,58.0,29.98,SE,139,0.0,-999.0,90,0.00,,,0.00,WeatherSnoop3.0,2013-08-18 09:38:00,
2013-08-18 04:43:00,60.7,57.7,29.98,SE,138,0.0,-999.0,90,0.00,,,0.00,WeatherSnoop3.0,2013-08-18 09:43:00,
2013-08-18 04:48:00,60.6,58.0,29.98,SE,139,0.0,-999.0,91,0.00,,,0.00,WeatherSnoop3.0,2013-08-18 09:48:00,
2013-08-18 04:53:00,60.8,58.2,29.98,SE,138,0.0,-999.0,91,0.00,,,0.00,WeatherSnoop3.0,2013-08-18 09:53:00,
2013-08-18 04:58:00,60.7,58.1,29.98,SE,136,0.0,-999.0,91,0.00,,,0.00,WeatherSnoop3.0,2013-08-18 09:58:00,
2013-08-18 05:03:00,60.8,57.8,29.98,SE,138,0.0,-999.0,90,0.00,,,0.00,WeatherSnoop3.0,2013-08-18 10:03:00,
2013-08-18 05:08:00,60.8,58.2,29.98,SE,138,0.0,-999.0,91,0.00,,,0.00,WeatherSnoop3.0,2013-08-18 10:08:00,
2013-08-18 05:13:00,60.8,57.8,29.98,SE,138,0.0,-999.0,90,0.00,,,0.00,WeatherSnoop3.0,2013-08-18 10:13:00,
2013-08-18 05:18:00,60.8,58.2,29.98,SE,136,0.0,-999.0,91,0.00,,,0.00,WeatherSnoop3.0,2013-08-18 10:18:00,
2013-08-18 05:23:00,60.9,57.9,29.98,SE,136,0.0,-999.0,90,0.00,,,0.00,WeatherSnoop3.0,2013-08-18 10:23:00,
2013-08-18 05:28:00,60.8,57.8,29.98,SE,136,0.0,-999.0,90,0.00,,,0.00,WeatherSnoop3.0,2013-08-18 10:28:00,
2013-08-18 05:33:00,60.7,58.1,29.99,SE,137,0.0,-999.0,91,0.00,,,0.00,WeatherSnoop3.0,2013-08-18 10:33:00,
2013-08-18 05:38:00,60.9,57.9,29.98,SE,125,0.0,-999.0,90,0.00,,,0.00,WeatherSnoop3.0,2013-08-18 10:38:00,
2013-08-18 05:43:00,61.1,58.1,29.99,SE,126,0.0,-999.0,90,0.00,,,0.00,WeatherSnoop3.0,2013-08-18 10:43:00,
2013-08-18 05:48:00,61.0,58.0,29.99,SE,125,0.0,-999.0,90,0.00,,,0.00,WeatherSnoop3.0,2013-08-18 10:48:00,
2013-08-18 05:53:00,61.1,58.1,29.99,SE,126,0.0,-999.0,90,0.00,,,0.00,WeatherSnoop3.0,2013-08-18 10:53:00,
2013-08-18 05:58:00,61.3,58.0,29.99,SE,136,0.0,-999.0,89,0.00,,,0.00,WeatherSnoop3.0,2013-08-18 10:58:00,
2013-08-18 06:03:00,61.7,58.4,29.99,ESE,113,1.0,-999.0,89,0.00,,,0.00,WeatherSnoop3.0,2013-08-18 11:03:00,
2013-08-18 06:08:00,61.9,58.3,29.99,ESE,118,0.0,-999.0,88,0.00,,,0.00,WeatherSnoop3.0,2013-08-18 11:08:00,
2013-08-18 06:13:00,61.9,58.3,29.99,ESE,118,0.0,-999.0,88,0.00,,,0.00,WeatherSnoop3.0,2013-08-18 11:13:00,
2013-08-18 06:18:00,61.8,58.2,29.99,ESE,119,0.0,-999.0,88,0.00,,,0.00,WeatherSnoop3.0,2013-08-18 11:18:00,
2013-08-18 06:23:00,61.9,58.3,29.99,SSE,160,1.0,-999.0,88,0.00,,,0.00,WeatherSnoop3.0,2013-08-18 11:23:00,
2013-08-18 06:28:00,62.1,58.2,29.99,SE,142,0.0,-999.0,87,0.00,,,0.00,WeatherSnoop3.0,2013-08-18 11:28:00,
2013-08-18 06:33:00,62.1,58.2,29.99,SE,146,0.0,-999.0,87,0.00,,,0.00,WeatherSnoop3.0,2013-08-18 11:33:00,
2013-08-18 06:38:00,62.0,58.4,29.99,SE,131,1.0,-999.0,88,0.00,,,0.00,WeatherSnoop3.0,2013-08-18 11:38:00,
2013-08-18 06:43:00,61.9,58.3,30.00,SE,130,0.0,-999.0,88,0.00,,,0.00,WeatherSnoop3.0,2013-08-18 11:43:00,
2013-08-18 06:48:00,61.8,58.2,30.00,SE,135,0.0,-999.0,88,0.00,,,0.00,WeatherSnoop3.0,2013-08-18 11:48:00,
2013-08-18 06:53:00,61.6,58.3,30.00,SE,135,0.0,-999.0,89,0.00,,,0.00,WeatherSnoop3.0,2013-08-18 11:53:00,
2013-08-18 06:58:00,61.4,58.1,30.00,ESE,113,0.0,-999.0,89,0.00,,,0.00,WeatherSnoop3.0,2013-08-18 11:58:00,
2013-08-18 07:03:00,61.1,57.8,30.00,ESE,113,0.0,-999.0,89,0.00,,,0.00,WeatherSnoop3.0,2013-08-18 12:03:00,
2013-08-18 07:08:00,60.9,57.9,30.00,ESE,113,0.0,-999.0,90,0.00,,,0.00,WeatherSnoop3.0,2013-08-18 12:08:00,
2013-08-18 07:13:00,60.7,58.1,30.00,ESE,113,0.0,-999.0,91,0.00,,,0.00,WeatherSnoop3.0,2013-08-18 12:13:00,
2013-08-18 07:18:00,60.8,58.2,30.00,ESE,113,0.0,-999.0,91,0.00,,,0.00,WeatherSnoop3.0,2013-08-18 12:18:00,
2013-08-18 07:23:00,60.8,57.8,30.00,ESE,113,0.0,-999.0,90,0.00,,,0.00,WeatherSnoop3.0,2013-08-18 12:23:00,
2013-08-18 07:28:00,61.1,58.1,30.00,ESE,113,0.0,-999.0,90,0.00,,,0.00,WeatherSnoop3.0,2013-08-18 12:28:00,
2013-08-18 07:33:00,61.6,58.6,30.00,ESE,119,0.0,-999.0,90,0.00,,,0.00,WeatherSnoop3.0,2013-08-18 12:33:00,
2013-08-18 07:38:00,62.1,58.8,30.00,SE,134,0.0,-999.0,89,0.00,,,0.00,WeatherSnoop3.0,2013-08-18 12:38:00,
2013-08-18 07:43:00,62.7,59.1,30.00,ESE,114,0.0,-999.0,88,0.00,,,0.00,WeatherSnoop3.0,2013-08-18 12:43:00,
2013-08-18 07:48:00,63.2,59.6,30.01,SE,141,1.0,-999.0,88,0.00,,,0.00,WeatherSnoop3.0,2013-08-18 12:48:00,
2013-08-18 07:53:00,63.4,59.5,30.00,SE,144,1.0,-999.0,87,0.00,,,0.00,WeatherSnoop3.0,2013-08-18 12:53:00,
2013-08-18 07:58:00,63.7,59.4,30.01,SSE,149,3.0,-999.0,86,0.00,,,0.00,WeatherSnoop3.0,2013-08-18 12:58:00,
2013-08-18 08:03:00,63.9,59.6,30.01,SSE,165,3.0,-999.0,86,0.00,,,0.00,WeatherSnoop3.0,2013-08-18 13:03:00,
2013-08-18 08:08:00,64.2,59.9,30.01,SSE,165,4.0,-999.0,86,0.00,,,0.00,WeatherSnoop3.0,2013-08-18 13:08:00,
2013-08-18 08:13:00,64.7,60.1,30.01,SE,145,0.0,-999.0,85,0.00,,,0.00,WeatherSnoop3.0,2013-08-18 13:13:00,
2013-08-18 08:18:00,65.2,60.6,30.01,ESE,104,1.0,-999.0,85,0.00,,,0.00,WeatherSnoop3.0,2013-08-18 13:18:00,
2013-08-18 08:23:00,65.8,60.8,30.01,SE,143,3.0,-999.0,84,0.00,,,0.00,WeatherSnoop3.0,2013-08-18 13:23:00,
2013-08-18 08:28:00,66.4,60.7,30.01,SE,129,1.0,-999.0,82,0.00,,,0.00,WeatherSnoop3.0,2013-08-18 13:28:00,
2013-08-18 08:33:00,66.8,60.8,30.01,SSE,153,4.0,-999.0,81,0.00,,,0.00,WeatherSnoop3.0,2013-08-18 13:33:00,
2013-08-18 08:38:00,67.4,62.1,30.01,SSE,150,1.0,-999.0,83,0.00,,,0.00,WeatherSnoop3.0,2013-08-18 13:38:00,
2013-08-18 08:43:00,67.9,61.8,30.02,SE,142,2.0,-999.0,81,0.00,,,0.00,WeatherSnoop3.0,2013-08-18 13:43:00,
2013-08-18 08:48:00,68.1,62.4,30.01,SSE,160,2.0,-999.0,82,0.00,,,0.00,WeatherSnoop3.0,2013-08-18 13:48:00,
2013-08-18 08:53:00,68.2,61.8,30.02,SSE,158,2.0,-999.0,80,0.00,,,0.00,WeatherSnoop3.0,2013-08-18 13:53:00,
2013-08-18 08:58:00,68.3,61.5,30.02,SSE,155,1.0,-999.0,79,0.00,,,0.00,WeatherSnoop3.0,2013-08-18 13:58:00,
2013-08-18 09:03:00,68.3,61.9,30.02,SE,129,0.0,-999.0,80,0.00,,,0.00,WeatherSnoop3.0,2013-08-18 14:03:00,
2013-08-18 09:08:00,68.5,62.1,30.02,ESE,117,2.0,-999.0,80,0.00,,,0.00,WeatherSnoop3.0,2013-08-18 14:08:00,
2013-08-18 09:13:00,69.0,62.2,30.03,SSE,158,0.0,-999.0,79,0.00,,,0.00,WeatherSnoop3.0,2013-08-18 14:13:00,
2013-08-18 09:18:00,69.6,62.4,30.02,SSE,158,1.0,-999.0,78,0.00,,,0.00,WeatherSnoop3.0,2013-08-18 14:18:00,
2013-08-18 09:23:00,69.9,62.7,30.02,East,88,1.0,-999.0,78,0.00,,,0.00,WeatherSnoop3.0,2013-08-18 14:23:00,
2013-08-18 09:28:00,70.2,62.3,30.02,SE,126,2.0,-999.0,76,0.00,,,0.00,WeatherSnoop3.0,2013-08-18 14:28:00,
2013-08-18 09:33:00,70.8,63.2,30.02,SSE,158,1.0,-999.0,77,0.00,,,0.00,WeatherSnoop3.0,2013-08-18 14:33:00,
2013-08-18 09:38:00,71.3,63.0,30.02,SE,140,3.0,-999.0,75,0.00,,,0.00,WeatherSnoop3.0,2013-08-18 14:38:00,
2013-08-18 09:43:00,71.3,63.0,30.02,SE,143,1.0,-999.0,75,0.00,,,0.00,WeatherSnoop3.0,2013-08-18 14:43:00,
2013-08-18 09:48:00,71.7,63.0,30.02,South,169,2.0,-999.0,74,0.00,,,0.00,WeatherSnoop3.0,2013-08-18 14:48:00,
2013-08-18 09:53:00,71.9,63.2,30.02,SSE,155,2.0,-999.0,74,0.00,,,0.00,WeatherSnoop3.0,2013-08-18 14:53:00,
2013-08-18 09:58:00,71.4,62.7,30.02,SE,131,1.0,-999.0,74,0.00,,,0.00,WeatherSnoop3.0,2013-08-18 14:58:00,
2013-08-18 10:03:00,71.8,63.4,30.02,ESE,119,2.0,-999.0,75,0.00,,,0.00,WeatherSnoop3.0,2013-08-18 15:03:00,
2013-08-18 10:08:00,72.9,63.7,30.02,SSW,203,2.0,-999.0,73,0.00,,,0.00,WeatherSnoop3.0,2013-08-18 15:08:00,
2013-08-18 10:13:00,73.0,63.0,30.02,SSE,152,2.0,-999.0,71,0.00,,,0.00,WeatherSnoop3.0,2013-08-18 15:13:00,
2013-08-18 10:18:00,73.3,63.7,30.02,SE,125,2.0,-999.0,72,0.00,,,0.00,WeatherSnoop3.0,2013-08-18 15:18:00,
2013-08-18 10:23:00,73.5,64.3,30.02,SE,139,1.0,-999.0,73,0.00,,,0.00,WeatherSnoop3.0,2013-08-18 15:23:00,
2013-08-18 10:28:00,73.5,63.9,30.02,South,176,3.0,-999.0,72,0.00,,,0.00,WeatherSnoop3.0,2013-08-18 15:28:00,
2013-08-18 10:33:00,73.4,64.2,30.02,SE,129,1.0,-999.0,73,0.00,,,0.00,WeatherSnoop3.0,2013-08-18 15:33:00,
2013-08-18 10:38:00,74.3,64.3,30.02,SSE,151,3.0,-999.0,71,0.00,,,0.00,WeatherSnoop3.0,2013-08-18 15:38:00,
2013-08-18 10:43:00,74.7,64.7,30.02,South,183,3.0,-999.0,71,0.00,,,0.00,WeatherSnoop3.0,2013-08-18 15:43:00,
2013-08-18 10:48:00,74.9,63.6,30.02,SE,142,5.0,-999.0,68,0.00,,,0.00,WeatherSnoop3.0,2013-08-18 15:48:00,
2013-08-18 10:53:00,75.1,63.8,30.02,SSE,156,5.0,-999.0,68,0.00,,,0.00,WeatherSnoop3.0,2013-08-18 15:53:00,
2013-08-18 10:58:00,75.3,64.4,30.02,SE,133,4.0,-999.0,69,0.00,,,0.00,WeatherSnoop3.0,2013-08-18 15:58:00,
2013-08-18 11:03:00,75.0,64.1,30.02,ESE,117,5.0,-999.0,69,0.00,,,0.00,WeatherSnoop3.0,2013-08-18 16:03:00,
2013-08-18 11:08:00,75.3,64.8,30.02,SE,146,3.0,-999.0,70,0.00,,,0.00,WeatherSnoop3.0,2013-08-18 16:08:00,
2013-08-18 11:13:00,74.9,64.0,30.01,SE,142,2.0,-999.0,69,0.00,,,0.00,WeatherSnoop3.0,2013-08-18 16:13:00,
2013-08-18 11:18:00,74.7,63.4,30.01,SE,140,3.0,-999.0,68,0.00,,,0.00,WeatherSnoop3.0,2013-08-18 16:18:00,
2013-08-18 11:23:00,74.8,64.3,30.02,South,190,1.0,-999.0,70,0.00,,,0.00,WeatherSnoop3.0,2013-08-18 16:23:00,
2013-08-18 11:28:00,74.8,63.9,30.02,SE,142,4.0,-999.0,69,0.00,,,0.00,WeatherSnoop3.0,2013-08-18 16:28:00,
2013-08-18 11:33:00,74.9,64.4,30.01,SSE,159,2.0,-999.0,70,0.00,,,0.00,WeatherSnoop3.0,2013-08-18 16:33:00,
2013-08-18 11:38:00,75.1,63.4,30.01,ESE,110,2.0,-999.0,67,0.00,,,0.00,WeatherSnoop3.0,2013-08-18 16:38:00,
2013-08-18 11:43:00,75.1,64.2,30.01,ESE,110,1.0,-999.0,69,0.00,,,0.00,WeatherSnoop3.0,2013-08-18 16:43:00,
2013-08-18 11:48:00,75.0,64.1,30.01,SSW,193,3.0,-999.0,69,0.00,,,0.00,WeatherSnoop3.0,2013-08-18 16:48:00,
2013-08-18 11:53:00,75.0,63.7,30.01,SE,140,3.0,-999.0,68,0.00,,,0.00,WeatherSnoop3.0,2013-08-18 16:53:00,
2013-08-18 11:58:00,74.8,62.7,30.01,SSW,202,2.0,-999.0,66,0.00,,,0.00,WeatherSnoop3.0,2013-08-18 16:58:00,
2013-08-18 12:03:00,74.5,63.6,30.01,SE,135,3.0,-999.0,69,0.00,,,0.00,WeatherSnoop3.0,2013-08-18 17:03:00,
2013-08-18 12:08:00,74.9,65.3,30.00,South,173,6.0,-999.0,72,0.00,,,0.00,WeatherSnoop3.0,2013-08-18 17:08:00,
2013-08-18 12:13:00,75.5,64.6,30.00,SW,218,3.0,-999.0,69,0.00,,,0.00,WeatherSnoop3.0,2013-08-18 17:13:00,
2013-08-18 12:18:00,76.4,64.6,30.00,ESE,103,3.0,-999.0,67,0.00,,,0.00,WeatherSnoop3.0,2013-08-18 17:18:00,
2013-08-18 12:23:00,76.6,63.9,30.00,SE,140,4.0,-999.0,65,0.00,,,0.00,WeatherSnoop3.0,2013-08-18 17:23:00,
2013-08-18 12:28:00,76.4,65.0,30.00,SE,140,1.0,-999.0,68,0.00,,,0.00,WeatherSnoop3.0,2013-08-18 17:28:00,
2013-08-18 12:33:00,76.7,65.7,30.00,ESE,119,2.0,-999.0,69,0.00,,,0.00,WeatherSnoop3.0,2013-08-18 17:33:00,
2013-08-18 12:38:00,77.2,64.9,30.00,ESE,115,1.0,-999.0,66,0.00,,,0.00,WeatherSnoop3.0,2013-08-18 17:38:00,
2013-08-18 12:43:00,78.1,64.0,30.00,ESE,122,1.0,-999.0,62,0.00,,,0.00,WeatherSnoop3.0,2013-08-18 17:43:00,
2013-08-18 12:48:00,78.9,64.8,29.99,ESE,117,5.0,-999.0,62,0.00,,,0.00,WeatherSnoop3.0,2013-08-18 17:48:00,
2013-08-18 12:53:00,79.1,65.4,29.99,SE,136,3.0,-999.0,63,0.00,,,0.00,WeatherSnoop3.0,2013-08-18 17:53:00,
2013-08-18 12:58:00,78.3,64.2,29.99,SE,131,1.0,-999.0,62,0.00,,,0.00,WeatherSnoop3.0,2013-08-18 17:58:00,
2013-08-18 13:03:00,78.5,65.7,29.99,SE,131,0.0,-999.0,65,0.00,,,0.00,WeatherSnoop3.0,2013-08-18 18:03:00,
2013-08-18 13:08:00,79.0,64.4,29.99,SE,139,1.0,-999.0,61,0.00,,,0.00,WeatherSnoop3.0,2013-08-18 18:08:00,
2013-08-18 13:13:00,79.6,65.4,29.98,South,174,2.0,-999.0,62,0.00,,,0.00,WeatherSnoop3.0,2013-08-18 18:13:00,
2013-08-18 13:18:00,79.7,65.5,29.98,South,177,0.0,-999.0,62,0.00,,,0.00,WeatherSnoop3.0,2013-08-18 18:18:00,
2013-08-18 13:23:00,79.6,64.0,29.98,SE,131,2.0,-999.0,59,0.00,,,0.00,WeatherSnoop3.0,2013-08-18 18:23:00,
2013-08-18 13:28:00,79.5,64.9,29.98,SSE,164,2.0,-999.0,61,0.00,,,0.00,WeatherSnoop3.0,2013-08-18 18:28:00,
2013-08-18 13:33:00,79.7,65.0,29.97,SE,143,2.0,-999.0,61,0.00,,,0.00,WeatherSnoop3.0,2013-08-18 18:33:00,
2013-08-18 13:38:00,79.8,66.1,29.97,SE,145,1.0,-999.0,63,0.00,,,0.00,WeatherSnoop3.0,2013-08-18 18:38:00,
2013-08-18 13:43:00,79.5,64.9,29.97,SE,131,3.0,-999.0,61,0.00,,,0.00,WeatherSnoop3.0,2013-08-18 18:43:00,
2013-08-18 13:48:00,79.3,64.7,29.97,SE,136,5.0,-999.0,61,0.00,,,0.00,WeatherSnoop3.0,2013-08-18 18:48:00,
2013-08-18 13:53:00,79.2,64.6,29.97,SSE,151,2.0,-999.0,61,0.00,,,0.00,WeatherSnoop3.0,2013-08-18 18:53:00,
2013-08-18 13:58:00,79.5,65.3,29.97,SE,132,4.0,-999.0,62,0.00,,,0.00,WeatherSnoop3.0,2013-08-18 18:58:00,
2013-08-18 14:03:00,80.1,66.3,29.97,SE,139,0.0,-999.0,63,0.00,,,0.00,WeatherSnoop3.0,2013-08-18 19:03:00,
2013-08-18 14:08:00,80.7,64.0,29.96,SSE,149,5.0,-999.0,57,0.00,,,0.00,WeatherSnoop3.0,2013-08-18 19:08:00,
2013-08-18 14:13:00,80.8,66.1,29.96,SE,129,4.0,-999.0,61,0.00,,,0.00,WeatherSnoop3.0,2013-08-18 19:13:00,
2013-08-18 14:18:00,81.2,64.0,29.96,ESE,117,2.0,-999.0,56,0.00,,,0.00,WeatherSnoop3.0,2013-08-18 19:18:00,
2013-08-18 14:23:00,81.0,64.3,29.96,SE,145,6.0,-999.0,57,0.00,,,0.00,WeatherSnoop3.0,2013-08-18 19:23:00,
2013-08-18 14:28:00,81.3,65.6,29.96,SE,131,2.0,-999.0,59,0.00,,,0.00,WeatherSnoop3.0,2013-08-18 19:28:00,
2013-08-18 14:33:00,81.7,67.9,29.95,SE,134,8.0,-999.0,63,0.00,,,0.00,WeatherSnoop3.0,2013-08-18 19:33:00,
2013-08-18 14:38:00,81.7,66.0,29.95,SSE,158,6.0,-999.0,59,0.00,,,0.00,WeatherSnoop3.0,2013-08-18 19:38:00,
2013-08-18 14:43:00,80.9,64.2,29.95,SSE,150,2.0,-999.0,57,0.00,,,0.00,WeatherSnoop3.0,2013-08-18 19:43:00,
2013-08-18 14:48:00,80.9,66.2,29.95,SE,140,2.0,-999.0,61,0.00,,,0.00,WeatherSnoop3.0,2013-08-18 19:48:00,
2013-08-18 14:53:00,81.0,64.3,29.95,SSE,160,4.0,-999.0,57,0.00,,,0.00,WeatherSnoop3.0,2013-08-18 19:53:00,
2013-08-18 14:58:00,81.0,66.3,29.95,South,190,0.0,-999.0,61,0.00,,,0.00,WeatherSnoop3.0,2013-08-18 19:58:00,
2013-08-18 15:03:00,81.7,66.0,29.95,SE,139,3.0,-999.0,59,0.00,,,0.00,WeatherSnoop3.0,2013-08-18 20:03:00,
2013-08-18 15:08:00,81.7,66.4,29.94,SSE,148,6.0,-999.0,60,0.00,,,0.00,WeatherSnoop3.0,2013-08-18 20:08:00,
2013-08-18 15:13:00,81.6,64.4,29.94,East,97,2.0,-999.0,56,0.00,,,0.00,WeatherSnoop3.0,2013-08-18 20:13:00,
2013-08-18 15:18:00,81.5,65.8,29.94,SE,140,9.0,-999.0,59,0.00,,,0.00,WeatherSnoop3.0,2013-08-18 20:18:00,
2013-08-18 15:23:00,81.4,64.2,29.94,SW,221,4.0,-999.0,56,0.00,,,0.00,WeatherSnoop3.0,2013-08-18 20:23:00,
2013-08-18 15:28:00,81.6,63.8,29.94,SSE,150,2.0,-999.0,55,0.00,,,0.00,WeatherSnoop3.0,2013-08-18 20:28:00,
2013-08-18 15:33:00,81.9,65.1,29.93,SW,218,3.0,-999.0,57,0.00,,,0.00,WeatherSnoop3.0,2013-08-18 20:33:00,
2013-08-18 15:38:00,82.0,65.2,29.93,SW,218,3.0,-999.0,57,0.00,,,0.00,WeatherSnoop3.0,2013-08-18 20:38:00,
2013-08-18 15:43:00,82.2,63.9,29.93,SSE,155,3.0,-999.0,54,0.00,,,0.00,WeatherSnoop3.0,2013-08-18 20:43:00,
2013-08-18 15:48:00,82.4,65.6,29.93,SE,136,3.0,-999.0,57,0.00,,,0.00,WeatherSnoop3.0,2013-08-18 20:48:00,
2013-08-18 15:53:00,82.2,64.9,29.93,SW,225,6.0,-999.0,56,0.00,,,0.00,WeatherSnoop3.0,2013-08-18 20:53:00,
2013-08-18 15:58:00,82.5,65.7,29.93,SW,232,2.0,-999.0,57,0.00,,,0.00,WeatherSnoop3.0,2013-08-18 20:58:00,
2013-08-18 16:04:00,82.5,66.2,29.93,ESE,102,2.0,-999.0,58,0.00,,,0.00,WeatherSnoop3.0,2013-08-18 21:04:00,
2013-08-18 16:09:00,82.4,65.1,29.92,ESE,116,3.0,-999.0,56,0.00,,,0.00,WeatherSnoop3.0,2013-08-18 21:09:00,
2013-08-18 16:14:00,82.5,66.7,29.93,South,174,2.0,-999.0,59,0.00,,,0.00,WeatherSnoop3.0,2013-08-18 21:14:00,
2013-08-18 16:19:00,82.9,66.1,29.93,ESE,121,5.0,-999.0,57,0.00,,,0.00,WeatherSnoop3.0,2013-08-18 21:19:00,
2013-08-18 16:24:00,82.8,66.0,29.93,SSE,148,1.0,-999.0,57,0.00,,,0.00,WeatherSnoop3.0,2013-08-18 21:24:00,
2013-08-18 16:29:00,82.8,67.0,29.93,SE,126,3.0,-999.0,59,0.00,,,0.00,WeatherSnoop3.0,2013-08-18 21:29:00,
2013-08-18 16:34:00,82.3,66.5,29.92,East,92,1.0,-999.0,59,0.00,,,0.00,WeatherSnoop3.0,2013-08-18 21:34:00,
2013-08-18 16:39:00,82.0,66.2,29.92,SE,145,2.0,-999.0,59,0.00,,,0.00,WeatherSnoop3.0,2013-08-18 21:39:00,
2013-08-18 16:44:00,82.1,67.8,29.92,SSE,151,3.0,-999.0,62,0.00,,,0.00,WeatherSnoop3.0,2013-08-18 21:44:00,
2013-08-18 16:49:00,82.3,67.0,29.92,East,97,2.0,-999.0,60,0.00,,,0.00,WeatherSnoop3.0,2013-08-18 21:49:00,
2013-08-18 16:54:00,82.1,65.3,29.92,SE,146,4.0,-999.0,57,0.00,,,0.00,WeatherSnoop3.0,2013-08-18 21:54:00,
2013-08-18 16:59:00,82.3,66.5,29.92,SSW,198,3.0,-999.0,59,0.00,,,0.00,WeatherSnoop3.0,2013-08-18 21:59:00,
2013-08-18 17:04:00,82.5,67.2,29.92,SE,140,3.0,-999.0,60,0.00,,,0.00,WeatherSnoop3.0,2013-08-18 22:04:00,
2013-08-18 17:09:00,82.5,68.1,29.92,ESE,102,1.0,-999.0,62,0.00,,,0.00,WeatherSnoop3.0,2013-08-18 22:09:00,
2013-08-18 17:14:00,82.6,66.8,29.92,SE,140,3.0,-999.0,59,0.00,,,0.00,WeatherSnoop3.0,2013-08-18 22:14:00,
2013-08-18 17:19:00,82.5,66.7,29.92,East,92,0.0,-999.0,59,0.00,,,0.00,WeatherSnoop3.0,2013-08-18 22:19:00,
2013-08-18 17:24:00,82.4,67.1,29.92,SE,134,6.0,-999.0,60,0.00,,,0.00,WeatherSnoop3.0,2013-08-18 22:24:00,
2013-08-18 17:29:00,82.2,65.9,29.92,SSE,153,1.0,-999.0,58,0.00,,,0.00,WeatherSnoop3.0,2013-08-18 22:29:00,
2013-08-18 17:34:00,82.1,66.3,29.92,ESE,122,3.0,-999.0,59,0.00,,,0.00,WeatherSnoop3.0,2013-08-18 22:34:00,
2013-08-18 17:39:00,81.9,66.1,29.92,SE,131,2.0,-999.0,59,0.00,,,0.00,WeatherSnoop3.0,2013-08-18 22:39:00,
2013-08-18 17:44:00,81.8,65.6,29.91,SE,132,4.0,-999.0,58,0.00,,,0.00,WeatherSnoop3.0,2013-08-18 22:44:00,
2013-08-18 17:49:00,81.6,65.4,29.91,SE,140,6.0,-999.0,58,0.00,,,0.00,WeatherSnoop3.0,2013-08-18 22:49:00,
2013-08-18 17:54:00,81.5,66.7,29.91,East,85,0.0,-999.0,61,0.00,,,0.00,WeatherSnoop3.0,2013-08-18 22:54:00,
2013-08-18 17:59:00,81.4,65.7,29.91,SSE,147,4.0,-999.0,59,0.00,,,0.00,WeatherSnoop3.0,2013-08-18 22:59:00,
2013-08-18 18:04:00,81.3,66.5,29.91,ESE,115,1.0,-999.0,61,0.00,,,0.00,WeatherSnoop3.0,2013-08-18 23:04:00,
2013-08-18 18:09:00,81.2,66.0,29.91,ESE,116,2.0,-999.0,60,0.00,,,0.00,WeatherSnoop3.0,2013-08-18 23:09:00,
2013-08-18 18:14:00,80.9,65.7,29.90,SE,142,3.0,-999.0,60,0.00,,,0.00,WeatherSnoop3.0,2013-08-18 23:14:00,
2013-08-18 18:19:00,80.8,65.6,29.90,SSE,158,4.0,-999.0,60,0.00,,,0.00,WeatherSnoop3.0,2013-08-18 23:19:00,
2013-08-18 18:24:00,80.7,65.5,29.90,SE,131,1.0,-999.0,60,0.00,,,0.00,WeatherSnoop3.0,2013-08-18 23:24:00,
2013-08-18 18:29:00,80.6,65.9,29.90,SE,125,3.0,-999.0,61,0.00,,,0.00,WeatherSnoop3.0,2013-08-18 23:29:00,
2013-08-18 18:34:00,80.3,65.1,29.90,SSE,149,4.0,-999.0,60,0.00,,,0.00,WeatherSnoop3.0,2013-08-18 23:34:00,
2013-08-18 18:39:00,80.1,65.9,29.90,East,93,2.0,-999.0,62,0.00,,,0.00,WeatherSnoop3.0,2013-08-18 23:39:00,
2013-08-18 18:44:00,79.9,64.8,29.90,SE,128,4.0,-999.0,60,0.00,,,0.00,WeatherSnoop3.0,2013-08-18 23:44:00,
2013-08-18 18:49:00,79.7,65.0,29.90,SE,137,2.0,-999.0,61,0.00,,,0.00,WeatherSnoop3.0,2013-08-18 23:49:00,
2013-08-18 18:54:00,79.5,64.9,29.90,SSE,152,2.0,-999.0,61,0.00,,,0.00,WeatherSnoop3.0,2013-08-18 23:54:00,
2013-08-18 18:59:00,79.3,64.7,29.90,SE,142,1.0,-999.0,61,0.00,,,0.00,WeatherSnoop3.0,2013-08-18 23:59:00,
2013-08-18 19:04:00,79.0,64.4,29.90,SE,125,1.0,-999.0,61,0.00,,,0.00,WeatherSnoop3.0,2013-08-19 00:04:00,
2013-08-18 19:09:00,78.6,64.9,29.90,SE,145,2.0,-999.0,63,0.00,,,0.00,WeatherSnoop3.0,2013-08-19 00:09:00,
2013-08-18 19:14:00,78.3,65.5,29.90,ESE,121,1.0,-999.0,65,0.00,,,0.00,WeatherSnoop3.0,2013-08-19 00:14:00,
2013-08-18 19:19:00,77.8,65.1,29.90,ESE,104,0.0,-999.0,65,0.00,,,0.00,WeatherSnoop3.0,2013-08-19 00:19:00,
2013-08-18 19:24:00,77.6,65.3,29.90,SSE,167,3.0,-999.0,66,0.00,,,0.00,WeatherSnoop3.0,2013-08-19 00:24:00,
2013-08-18 19:29:00,77.3,65.5,29.90,SE,131,1.0,-999.0,67,0.00,,,0.00,WeatherSnoop3.0,2013-08-19 00:29:00,
2013-08-18 19:34:00,77.0,65.2,29.90,SE,143,2.0,-999.0,67,0.00,,,0.00,WeatherSnoop3.0,2013-08-19 00:34:00,
2013-08-18 19:39:00,76.7,65.3,29.90,SE,134,6.0,-999.0,68,0.00,,,0.00,WeatherSnoop3.0,2013-08-19 00:39:00,
2013-08-18 19:44:00,76.5,65.1,29.90,SE,139,3.0,-999.0,68,0.00,,,0.00,WeatherSnoop3.0,2013-08-19 00:44:00,
2013-08-18 19:49:00,76.3,65.4,29.90,SE,143,0.0,-999.0,69,0.00,,,0.00,WeatherSnoop3.0,2013-08-19 00:49:00,
2013-08-18 19:54:00,76.0,65.1,29.91,SSE,153,4.0,-999.0,69,0.00,,,0.00,WeatherSnoop3.0,2013-08-19 00:54:00,
2013-08-18 19:59:00,75.7,64.8,29.91,SSE,147,1.0,-999.0,69,0.00,,,0.00,WeatherSnoop3.0,2013-08-19 00:59:00,
2013-08-18 20:04:00,75.3,65.2,29.91,SSE,160,3.0,-999.0,71,0.00,,,0.00,WeatherSnoop3.0,2013-08-19 01:04:00,
2013-08-18 20:09:00,75.0,64.9,29.90,SE,140,0.0,-999.0,71,0.00,,,0.00,WeatherSnoop3.0,2013-08-19 01:09:00,
2013-08-18 20:14:00,74.7,65.1,29.90,SE,145,1.0,-999.0,72,0.00,,,0.00,WeatherSnoop3.0,2013-08-19 01:14:00,
2013-08-18 20:19:00,74.4,65.2,29.91,SE,145,1.0,-999.0,73,0.00,,,0.00,WeatherSnoop3.0,2013-08-19 01:19:00,
2013-08-18 20:24:00,74.0,65.2,29.91,SE,139,1.0,-999.0,74,0.00,,,0.00,WeatherSnoop3.0,2013-08-19 01:24:00,
2013-08-18 20:29:00,73.7,65.3,29.91,SE,131,0.0,-999.0,75,0.00,,,0.00,WeatherSnoop3.0,2013-08-19 01:29:00,
2013-08-18 20:34:00,73.4,65.4,29.91,ESE,122,1.0,-999.0,76,0.00,,,0.00,WeatherSnoop3.0,2013-08-19 01:34:00,
2013-08-18 20:39:00,73.2,65.5,29.91,SE,131,1.0,-999.0,77,0.00,,,0.00,WeatherSnoop3.0,2013-08-19 01:39:00,
2013-08-18 20:44:00,72.9,65.3,29.92,SE,146,2.0,-999.0,77,0.00,,,0.00,WeatherSnoop3.0,2013-08-19 01:44:00,
2013-08-18 20:49:00,72.6,65.3,29.92,SE,126,1.0,-999.0,78,0.00,,,0.00,WeatherSnoop3.0,2013-08-19 01:49:00,
2013-08-18 20:54:00,72.4,65.1,29.92,SE,143,0.0,-999.0,78,0.00,,,0.00,WeatherSnoop3.0,2013-08-19 01:54:00,
2013-08-18 20:59:00,72.4,65.1,29.92,SE,134,1.0,-999.0,78,0.00,,,0.00,WeatherSnoop3.0,2013-08-19 01:59:00,
2013-08-18 21:04:00,72.1,65.2,29.92,SSE,153,2.0,-999.0,79,0.00,,,0.00,WeatherSnoop3.0,2013-08-19 02:04:00,
2013-08-18 21:09:00,72.0,65.1,29.93,SE,139,0.0,-999.0,79,0.00,,,0.00,WeatherSnoop3.0,2013-08-19 02:09:00,
2013-08-18 21:14:00,71.9,65.0,29.93,SSE,153,0.0,-999.0,79,0.00,,,0.00,WeatherSnoop3.0,2013-08-19 02:14:00,
2013-08-18 21:20:00,71.7,65.2,29.93,SE,134,0.0,-999.0,80,0.00,,,0.00,WeatherSnoop3.0,2013-08-19 02:20:00,
2013-08-18 21:25:00,71.5,65.4,29.93,SE,146,2.0,-999.0,81,0.00,,,0.00,WeatherSnoop3.0,2013-08-19 02:25:00,
2013-08-18 21:30:00,71.3,65.2,29.93,SE,131,0.0,-999.0,81,0.00,,,0.00,WeatherSnoop3.0,2013-08-19 02:30:00,
2013-08-18 21:35:00,71.1,65.3,29.94,SE,126,0.0,-999.0,82,0.00,,,0.00,WeatherSnoop3.0,2013-08-19 02:35:00,
2013-08-18 21:40:00,71.1,65.3,29.94,ESE,115,0.0,-999.0,82,0.00,,,0.00,WeatherSnoop3.0,2013-08-19 02:40:00,
2013-08-18 21:45:00,71.1,65.3,29.94,SE,128,0.0,-999.0,82,0.00,,,0.00,WeatherSnoop3.0,2013-08-19 02:45:00,
2013-08-18 21:50:00,70.9,65.1,29.94,SE,138,1.0,-999.0,82,0.00,,,0.00,WeatherSnoop3.0,2013-08-19 02:50:00,
2013-08-18 21:55:00,70.8,65.0,29.94,SE,139,0.0,-999.0,82,0.00,,,0.00,WeatherSnoop3.0,2013-08-19 02:55:00,
2013-08-18 22:00:00,70.6,64.8,29.95,SE,133,0.0,-999.0,82,0.00,,,0.00,WeatherSnoop3.0,2013-08-19 03:00:00,
2013-08-18 22:05:00,70.5,64.7,29.95,SE,133,0.0,-999.0,82,0.00,,,0.00,WeatherSnoop3.0,2013-08-19 03:05:00,
2013-08-18 22:10:00,70.4,64.6,29.95,SE,131,0.0,-999.0,82,0.00,,,0.00,WeatherSnoop3.0,2013-08-19 03:10:00,
2013-08-18 22:15:00,70.2,64.4,29.96,SE,142,0.0,-999.0,82,0.00,,,0.00,WeatherSnoop3.0,2013-08-19 03:15:00,
2013-08-18 22:20:00,70.1,64.7,29.96,SE,143,0.0,-999.0,83,0.00,,,0.00,WeatherSnoop3.0,2013-08-19 03:20:00,
2013-08-18 22:25:00,69.9,64.5,29.96,SE,142,0.0,-999.0,83,0.00,,,0.00,WeatherSnoop3.0,2013-08-19 03:25:00,
2013-08-18 22:30:00,69.8,64.4,29.96,SE,137,0.0,-999.0,83,0.00,,,0.00,WeatherSnoop3.0,2013-08-19 03:30:00,
2013-08-18 22:35:00,69.7,64.3,29.96,SE,142,1.0,-999.0,83,0.00,,,0.00,WeatherSnoop3.0,2013-08-19 03:35:00,
2013-08-18 22:40:00,69.7,64.6,29.97,SSE,148,0.0,-999.0,84,0.00,,,0.00,WeatherSnoop3.0,2013-08-19 03:40:00,
2013-08-18 22:45:00,69.6,64.2,29.97,SE,140,0.0,-999.0,83,0.00,,,0.00,WeatherSnoop3.0,2013-08-19 03:45:00,
2013-08-18 22:50:00,69.4,64.3,29.97,SE,137,1.0,-999.0,84,0.00,,,0.00,WeatherSnoop3.0,2013-08-19 03:50:00,
2013-08-18 22:55:00,69.2,64.2,29.96,SE,142,0.0,-999.0,84,0.00,,,0.00,WeatherSnoop3.0,2013-08-19 03:55:00,
2013-08-18 23:00:00,69.0,64.3,29.96,SE,129,0.0,-999.0,85,0.00,,,0.00,WeatherSnoop3.0,2013-08-19 04:00:00,
2013-08-18 23:01:00,69.0,64.3,29.96,SE,128,0.0,-999.0,85,0.00,,,0.00,WeatherSnoop3.0,2013-08-19 04:01:00,
2013-08-18 23:02:00,69.0,64.3,29.96,SE,129,0.0,-999.0,85,0.00,,,0.00,WeatherSnoop3.0,2013-08-19 04:02:00,
2013-08-18 23:04:00,68.9,64.2,29.96,SE,131,0.0,-999.0,85,0.00,,,0.00,WeatherSnoop3.0,2013-08-19 04:04:00,
2013-08-18 23:05:00,68.8,64.1,29.96,SE,131,0.0,-999.0,85,0.00,,,0.00,WeatherSnoop3.0,2013-08-19 04:05:00,
2013-08-18 23:08:00,68.8,64.4,29.96,SE,131,0.0,-999.0,86,0.00,,,0.00,WeatherSnoop3.0,2013-08-19 04:08:00,
2013-08-18 23:13:00,68.6,64.6,29.97,SE,137,0.0,-999.0,87,0.00,,,0.00,WeatherSnoop3.0,2013-08-19 04:13:00,
2013-08-18 23:18:00,68.5,64.5,29.96,SE,124,1.0,-999.0,87,0.00,,,0.00,WeatherSnoop3.0,2013-08-19 04:18:00,
2013-08-18 23:23:00,68.7,64.7,29.96,SE,133,0.0,-999.0,87,0.00,,,0.00,WeatherSnoop3.0,2013-08-19 04:23:00,
2013-08-18 23:28:00,68.8,64.8,29.96,SE,137,0.0,-999.0,87,0.00,,,0.00,WeatherSnoop3.0,2013-08-19 04:28:00,
2013-08-18 23:33:00,68.8,64.8,29.96,SE,142,2.0,-999.0,87,0.00,,,0.00,WeatherSnoop3.0,2013-08-19 04:33:00,
2013-08-18 23:38:00,68.9,64.9,29.96,ESE,122,1.0,-999.0,87,0.00,,,0.00,WeatherSnoop3.0,2013-08-19 04:38:00,
2013-08-18 23:43:00,69.0,65.0,29.96,SE,124,0.0,-999.0,87,0.00,,,0.00,WeatherSnoop3.0,2013-08-19 04:43:00,
2013-08-18 23:48:00,69.0,65.0,29.96,SE,126,0.0,-999.0,87,0.00,,,0.00,WeatherSnoop3.0,2013-08-19 04:48:00,
2013-08-18 23:53:00,69.0,65.0,29.96,SE,131,0.0,-999.0,87,0.00,,,0.00,WeatherSnoop3.0,2013-08-19 04:53:00,
2013-08-18 23:58:00,69.0,65.0,29.96,SE,146,1.0,-999.0,87,0.00,,,0.00,WeatherSnoop3.0,2013-08-19 04:58:00,